Regional Weather Roundup
Issued by NWS

Home | Current Version | Previous Version | Graphics & Text | Print | Product List | Glossary On
Versions: 1 2 3 4 5 6 7 8 9 10 11 12 13 14 15 16 17 18 19 20 21 22 23 24 25 26 27 28 29 30 31 32 33 34 35 36 37 38 39 40 41 42 43 44 45 46 47 48 49 50
000
ASUS43 KFSD 232310
RWRSD

WEATHER ROUNDUP FOR SOUTH DAKOTA
NATIONAL WEATHER SERVICE SIOUX FALLS SD
600 PM CDT SAT SEP 23 2017

NOTE: "FAIR" INDICATES FEW OR NO CLOUDS BELOW 12,000 FEET WITH NO
SIGNIFICANT WEATHER AND/OR OBSTRUCTIONS TO VISIBILITY.


SDZ001>005-009-010-012>017-240000-
NORTHWEST AND NORTH CENTRAL SOUTH DAKOTA

CITY           SKY/WX    TMP DP  RH WIND       PRES   REMARKS
BUFFALO          N/A     45  44  97 NE13      30.01S
FAITH            N/A     48  48 100 NE14      30.02R
MOBRIDGE       LGT RAIN  54  50  86 NE8       29.99S
$$

SDZ012>016-024>037-041>051-057-063-072>074-240000-
SOUTHWEST AND SOUTH CENTRAL SOUTH DAKOTA

CITY           SKY/WX    TMP DP  RH WIND       PRES   REMARKS
RAPID CTY ARPT LGT RAIN  46  45  93 N16       30.01F FOG
PIERRE         RAIN      50  50 100 N15       29.93F
CUSTER         CLOUDY    42  39  89 NE5       29.98F
ELLSWORTH AFB  LGT RAIN  46  46 100 N16       30.00
PHILIP         CLOUDY    50  50 100 N10       29.97S
PINE RIDGE     CLOUDY    47  46  97 N6        30.00R
SPEARFISH      LGT RAIN  43  43 100 NE6       30.07R
WINNER         CLOUDY    54  52  93 NE12      29.94F
$$

SDZ004>011-016>023-039-040-240000-
NORTHEAST SOUTH DAKOTA

CITY           SKY/WX    TMP DP  RH WIND       PRES   REMARKS
ABERDEEN       TSTM      53  52  96 NE16      29.97R
WATERTOWN      CLOUDY    53  53 100 NE12      29.94R
BROOKINGS      TSTM      64  63  94 NE6       29.92R FOG
SISSETON         N/A     56  55  97 NE10      29.97S
$$

SDZ017-020-022-023-036>040-048>070-240000-
SOUTHEAST SOUTH DAKOTA

CITY           SKY/WX    TMP DP  RH WIND       PRES   REMARKS
SIOUX FALLS    TSTM      70  64  81 NE16      29.89F
HURON          TSTM      56  56 100 NE10      29.91F
CHAMBERLAIN    CLOUDY    55  55 100 N10       29.95F
MITCHELL       CLOUDY    59  58  96 NE9       29.90F
YANKTON        LGT RAIN  74  69  85 NE9       29.86R
$$

ABBREVIATIONS USED IN REMARKS
   TC - TEMPERATURE IN CELSIUS
  WCI - WIND CHILL INDEX
   HX - HEAT INDEX
  VSB - VISIBILITY




USA.gov is the U.S. government's official web portal to all federal, state and local government web resources and services.